This is the latest recevied weather packets stored in our database for station/object AB4KN. If no packets are shown the sender has not sent any weather packets the latest 10 day(s).
| Time | Temp. | Humidity | Pressure | Rain* | Wind** | Luminosity | Snow |
|---|---|---|---|---|---|---|---|
| 1777378976 | 15° C | 82% | 1026.7 hPa | 0 mm | - | 1 W/m² | - |
| 1777378673 | 15° C | 82% | 1026.5 hPa | 0 mm | - | 1 W/m² | - |
| 1777378369 | 15° C | 81% | 1025.9 hPa | 0 mm | - | 6 W/m² | - |
| 1777378064 | 15° C | 82% | 1025.7 hPa | 0 mm | - | 9 W/m² | - |
| 1777377759 | 15° C | 82% | 1025.6 hPa | 0 mm | - | 8 W/m² | - |
| 1777377453 | 15° C | 82% | 1025.5 hPa | 0 mm | - | 6 W/m² | - |
| 1777377149 | 15° C | 81% | 1025.7 hPa | 0 mm | - | 6 W/m² | - |
| 1777376846 | 15° C | 81% | 1025.5 hPa | 0 mm | - | 6 W/m² | - |
| 1777376543 | 15° C | 81% | 1025.5 hPa | 0 mm | - | 3 W/m² | - |
| 1777376240 | 14.44° C | 82% | 1025.5 hPa | 0 mm | - | 3 W/m² | - |
| 1777375934 | 14.44° C | 82% | 1025.8 hPa | 0 mm | - | 1 W/m² | - |
| 1777375629 | 14.44° C | 82% | 1026.1 hPa | 0 mm | - | 0 W/m² | - |
| 1777375324 | 14.44° C | 82% | 1025.7 hPa | 0 mm | - | 0 W/m² | - |
| 1777375021 | 14.44° C | 82% | 1025.2 hPa | 0 mm | - | 0 W/m² | - |
| 1777374716 | 14.44° C | 82% | 1025.2 hPa | 0 mm | - | 0 W/m² | - |
| 1777374413 | 14.44° C | 82% | 1024.7 hPa | 0 mm | - | 0 W/m² | - |
| 1777374111 | 14.44° C | 82% | 1024.4 hPa | 0 mm | - | 0 W/m² | - |
| 1777373805 | 14.44° C | 82% | 1024.3 hPa | 0 mm | - | 0 W/m² | - |
| 1777373503 | 14.44° C | 82% | 1024.6 hPa | 0 mm | - | 0 W/m² | - |
| 1777373198 | 14.44° C | 81% | 1024.8 hPa | 0 mm | - | 0 W/m² | - |
| 1777372894 | 14.44° C | 81% | 1024.7 hPa | 0 mm | - | 0 W/m² | - |
| 1777372589 | 14.44° C | 81% | 1024.9 hPa | 0 mm | - | 0 W/m² | - |
| 1777372289 | 14.44° C | 81% | 1024.8 hPa | 0 mm | - | 0 W/m² | - |
| 1777371987 | 14.44° C | 81% | 1024.7 hPa | 0 mm | - | 0 W/m² | - |
| 1777371683 | 14.44° C | 81% | 1024.6 hPa | 0 mm | - | 0 W/m² | - |
* Rain latest hour (hover to see other rain measurements)
** Current wind speed in m/s (hover to see current wind gust speed)